User: anonymous   Login
Location: Unspecified
(0.0000°N, 0.0000°E)
Time: 01:08:21
(UTC+00:00)
Language:

STARLINK-30979 - Orbit

View from above orbital plane
View from above orbital plane
View from above satellite
View from above satellite

Ground track
Ground track

The orbit is defined by the following mean orbital elements,

1 58485U          26145.58210487 +.00000000 +00000-0 +84101-4 0 00004
2 58485  43.0027 349.5947 0001045 273.8314  86.2418 15.27580726    09
Epoch (UTC): 25 May 2026 13:58:13
Eccentricity: 0.0001045
inclination: 43.0027°
perigee height: 482 km
apogee height: 484 km
right ascension of ascending node: 349.5947°
argument of perigee: 273.8314°
revolutions per day: 15.27580726
mean anomaly at epoch: 86.2418°

The dashed part of the orbit path shows where the satellite is in the earth's shadow,  

DLR